K5WRW-WX Weather Reports


Display with metric or nautical units.
time (UTC)temp
F
wind
direction
speed
MPH
gust
MPH
rain 1hr
in
rain 24hr
in
rain mn
in
humidity
%
barometer
mb
20260505090515 72 0 8.0 12.0 0.00 0.00 0.00 80 1001.7
20260505085515 72 0 14.0 21.0 0.00 0.00 0.00 80 1001.7
20260505084516 72 0 9.0 14.0 0.00 0.00 0.00 80 1001.6
20260505083515 72 0 7.0 12.0 0.00 0.00 0.00 79 1001.6
20260505082515 72 0 9.0 12.0 0.00 0.00 0.00 79 1001.7
20260505081515 72 0 10.0 18.0 0.00 0.00 0.00 78 1001.8
20260505080515 72 0 12.0 19.0 0.00 0.00 0.00 78 1001.9
20260505075515 73 0 9.0 18.0 0.00 0.00 0.00 77 1002.0
20260505074515 73 0 7.0 12.0 0.00 0.00 0.00 77 1002.2
20260505073515 73 0 14.0 19.0 0.00 0.00 0.00 77 1002.2
20260505072515 73 0 10.0 14.0 0.00 0.00 0.00 76 1002.4
20260505071515 73 0 10.0 21.0 0.00 0.00 0.00 76 1002.6
20260505070616 73 0 13.0 20.0 0.00 0.00 0.00 76 1002.7
20260505065516 73 0 12.0 24.0 0.00 0.00 0.00 75 1002.8
20260505064515 73 0 8.0 11.0 0.00 0.00 0.00 75 1002.9
20260505063515 73 0 8.0 13.0 0.00 0.00 0.00 75 1003.0
20260505062515 73 0 12.0 20.0 0.00 0.00 0.00 74 1003.0
20260505061517 73 0 7.0 15.0 0.00 0.00 0.00 74 1003.1
20260505060515 73 0 7.0 14.0 0.00 0.00 0.00 74 1003.1
20260505055517 73 0 7.0 10.0 0.00 0.00 0.00 74 1003.1
20260505054517 73 0 7.0 11.0 0.00 0.00 0.00 74 1003.2
20260505053517 73 0 8.0 13.0 0.00 0.00 0.00 74 1003.3
20260505052517 73 0 7.0 11.0 0.00 0.00 0.00 74 1003.4
20260505051517 73 0 8.0 10.0 0.00 0.00 0.00 74 1003.6
20260505050517 73 0 8.0 12.0 0.00 0.00 0.00 74 1003.5
20260505041517 73 0 9.0 14.0 0.00 0.00 0.00 73 1003.8
20260505040517 73 0 10.0 19.0 0.00 0.00 0.00 73 1003.8
20260505035516 74 0 10.0 18.0 0.00 0.00 0.00 72 1003.9
20260505034517 74 0 8.0 14.0 0.00 0.00 0.00 72 1003.9
20260505033516 74 0 10.0 14.0 0.00 0.00 0.00 71 1004.1
20260505032517 74 0 9.0 14.0 0.00 0.00 0.00 71 1004.1
20260505031517 74 0 9.0 12.0 0.00 0.00 0.00 71 1004.1
20260505030517 74 0 10.0 13.0 0.00 0.00 0.00 71 1004.1
20260505025516 74 0 7.0 11.0 0.00 0.00 0.00 71 1004.1
20260505024516 74 0 8.0 13.0 0.00 0.00 0.00 70 1004.1
20260505023516 74 0 8.0 11.0 0.00 0.00 0.00 70 1004.0
20260505022516 75 0 8.0 13.0 0.00 0.00 0.00 69 1004.1
20260505021537 75 0 10.0 12.0 0.00 0.00 0.00 69 1004.1
20260505020516 75 0 9.0 14.0 0.00 0.00 0.00 68 1003.9
20260505015516 75 0 9.0 12.0 0.00 0.00 0.00 68 1004.0
20260505014516 76 0 6.0 8.0 0.00 0.00 0.00 67 1003.9
20260505013516 76 0 9.0 16.0 0.00 0.00 0.00 67 1003.9
20260505012537 76 0 10.0 18.0 0.00 0.00 0.00 66 1003.7
20260505011517 76 0 10.0 15.0 0.00 0.00 0.00 66 1003.5
20260505010536 77 0 11.0 20.0 0.00 0.00 0.00 65 1003.3
20260505005516 77 0 14.0 22.0 0.00 0.00 0.00 65 1003.4
20260505004516 77 0 9.0 14.0 0.00 0.00 0.00 65 1003.6
20260505003516 77 0 11.0 18.0 0.00 0.00 0.00 64 1003.6
20260505002556 78 0 10.0 12.0 0.00 0.00 0.00 64 1003.6
20260505001516 78 0 8.0 13.0 0.00 0.00 0.00 63 1003.8
20260505000516 78 0 7.0 11.0 0.00 0.00 0.00 62 1003.8
20260504235516 79 0 8.0 12.0 0.00 0.00 0.00 61 1003.8
20260504234516 79 0 11.0 14.0 0.00 0.00 0.00 61 1003.9
20260504233516 79 0 13.0 19.0 0.00 0.00 0.00 60 1004.1
20260504232516 79 0 15.0 24.0 0.00 0.00 0.00 60 1004.2
20260504231516 79 0 14.0 21.0 0.00 0.00 0.00 60 1004.3
20260504230516 80 0 12.0 16.0 0.00 0.00 0.00 59 1004.4
20260504225516 80 0 12.0 19.0 0.00 0.00 0.00 58 1004.6
20260504224516 81 0 12.0 20.0 0.00 0.00 0.00 57 1004.8
20260504223516 81 0 11.0 18.0 0.00 0.00 0.00 57 1004.5
20260504222516 80 0 15.0 25.0 0.00 0.00 0.00 56 1004.8
20260504221516 81 0 12.0 23.0 0.00 0.00 0.00 55 1004.8
20260504220516 81 0 14.0 24.0 0.00 0.00 0.00 55 1004.8
20260504215516 81 0 12.0 16.0 0.00 0.00 0.00 55 1005.0
20260504214516 81 0 10.0 18.0 0.00 0.00 0.00 55 1005.1
20260504213516 81 0 11.0 18.0 0.00 0.00 0.00 54 1005.3
20260504212516 80 0 10.0 25.0 0.00 0.00 0.00 55 1005.6
20260504211516 81 0 14.0 23.0 0.00 0.00 0.00 54 1005.8
20260504210515 80 0 14.0 24.0 0.00 0.00 0.00 55 1005.9
20260504205516 80 0 11.0 16.0 0.00 0.00 0.00 54 1006.0
20260504204516 80 0 13.0 19.0 0.00 0.00 0.00 53 1006.1
20260504203516 80 0 12.0 15.0 0.00 0.00 0.00 53 1006.4
20260504202516 81 0 12.0 21.0 0.00 0.00 0.00 52 1006.5
20260504201516 80 0 10.0 14.0 0.00 0.00 0.00 52 1006.8
20260504200516 80 0 10.0 14.0 0.00 0.00 0.00 52 1006.9
20260504195516 79 0 7.0 11.0 0.00 0.00 0.00 53 1007.1
20260504194516 79 0 12.0 20.0 0.00 0.00 0.00 52 1007.3
20260504193516 79 0 11.0 15.0 0.00 0.00 0.00 52 1007.5
20260504192515 78 0 10.0 15.0 0.00 0.00 0.00 52 1007.6
20260504191515 79 0 14.0 24.0 0.00 0.00 0.00 51 1007.8
20260504190515 78 0 11.0 13.0 0.00 0.00 0.00 51 1008.0
20260504185515 78 0 12.0 19.0 0.00 0.00 0.00 52 1008.2
20260504184515 78 0 10.0 14.0 0.00 0.00 0.00 51 1008.3
20260504183515 78 0 10.0 14.0 0.00 0.00 0.00 52 1008.3
20260504182515 78 0 10.0 13.0 0.00 0.00 0.00 53 1008.5
20260504181515 77 0 13.0 18.0 0.00 0.00 0.00 52 1008.6
20260504180515 77 0 9.0 14.0 0.00 0.00 0.00 54 1009.0
20260504175515 76 0 15.0 22.0 0.00 0.00 0.00 54 1009.1
20260504174517 76 0 13.0 19.0 0.00 0.00 0.00 54 1009.1
20260504173515 76 0 9.0 13.0 0.00 0.00 0.00 55 1009.3
20260504172517 76 0 10.0 16.0 0.00 0.00 0.00 54 1009.4
20260504171515 75 0 16.0 19.0 0.00 0.00 0.00 55 1009.6
20260504170538 75 0 13.0 20.0 0.00 0.00 0.00 56 1009.6
20260504150517 70 0 10.0 16.0 0.00 0.00 0.00 61 1010.7
20260504140537 67 0 12.0 20.0 0.00 0.00 0.00 64 1010.9
20260504130516 64 0 8.0 23.0 0.00 0.00 0.00 70 1011.1
20260504110516 63 0 6.0 11.0 0.00 0.00 0.00 68 1011.0
20260504100516 63 0 7.0 9.0 0.00 0.00 0.00 64 1011.1